Starlink 30348

operational
NORAD ID: 57712 Int'l Des: 2023-129 Owner: SPXS Country: US Constellation: starlink
LEOCIRCULAR

关于 Starlink 30348

正在加载描述...

实时位置

正在加载3D地球...

即将过境

高度历史

Altitude vs Time

uPlot chart will show altitude changes over time

两行轨道根数

1 57712U 23129Q 26037.10845016 .00001245 00000-0 10722-3 0 9999
2 57712 43.0035 291.9111 0001095 270.6212 89.4505 15.02541014135900
Epoch: Feb 6, 2026 • Age: 10 hours

当前状态

高度 560.4 km
速度 7.58 km/s
星下点 -9.25°S, 147.38°E
发射日期 Aug 27, 2023
运行时间 2.4 years
类型 internet

技术详情

分类 Payload
质量 730.00 kg
干质量 700.00 kg
总质量 730.00 kg
长度 0.30 m
直径 4.10 m
跨度 29.00 m
形状 Box + pan
制造商 SPXS
平台类型 Starlink V2M
阶段状态 In Orbit
所有者/国家 SPXS/US

大型星座

Loading constellations...